CW6261 Weather Reports


Display with metric or nautical units.
time (UTC)temp
F
wind
direction
speed
MPH
gust
MPH
rain 1hr
in
rain 24hr
in
rain mn
in
humidity
%
barometer
mb
20260503220702 77 157 2.0 11.0 0.00 0.00 0.00 32 101.7
20260503220202 77 180 2.0 9.0 0.00 0.00 0.00 33 101.6
20260503215202 77 157 3.0 11.0 0.00 0.00 0.00 35 101.6
20260503214702 76 187 2.0 8.0 0.00 0.00 0.00 34 101.7
20260503213702 77 192 2.0 6.0 0.00 0.00 0.00 34 101.7
20260503213202 77 195 3.0 9.0 0.00 0.00 0.00 32 101.7
20260503212702 76 233 4.0 9.0 0.00 0.00 0.00 32 101.7
20260503212202 76 218 3.0 5.0 0.00 0.00 0.00 33 101.7
20260503211702 76 241 2.0 8.0 0.00 0.00 0.00 32 101.8
20260503210702 77 184 9.0 10.0 0.00 0.00 0.00 34 101.8
20260503210203 77 210 3.0 11.0 0.00 0.00 0.00 33 101.7
20260503205703 77 116 2.0 12.0 0.00 0.00 0.00 33 101.7
20260503205203 77 208 3.0 5.0 0.00 0.00 0.00 32 101.7
20260503204702 77 199 8.0 10.0 0.00 0.00 0.00 31 101.7
20260503204201 77 193 10.0 11.0 0.00 0.00 0.00 32 101.7
20260503203702 77 255 2.0 11.0 0.00 0.00 0.00 32 101.7
20260503203202 76 221 3.0 14.0 0.00 0.00 0.00 32 101.8
20260503202702 78 159 2.0 13.0 0.00 0.00 0.00 32 101.8
20260503202202 78 213 6.0 8.0 0.00 0.00 0.00 32 101.8
20260503200702 77 176 8.0 11.0 0.00 0.00 0.00 31 101.9
20260503200202 77 98 0.0 10.0 0.00 0.00 0.00 31 101.8
20260503195704 77 175 7.0 9.0 0.00 0.00 0.00 31 101.8
20260503195202 77 194 1.0 6.0 0.00 0.00 0.00 32 101.8
20260503194702 77 165 6.0 9.0 0.00 0.00 0.00 34 101.8
20260503194202 77 181 4.0 9.0 0.00 0.00 0.00 31 101.8
20260503193702 76 194 2.0 5.0 0.00 0.00 0.00 33 101.8
20260503193202 77 154 7.0 11.0 0.00 0.00 0.00 32 101.9
20260503192703 76 215 5.0 8.0 0.00 0.00 0.00 31 101.9
20260503192202 77 181 2.0 9.0 0.00 0.00 0.00 31 101.9
20260503191702 77 241 4.0 8.0 0.00 0.00 0.00 32 102.0
20260503191202 76 208 4.0 6.0 0.00 0.00 0.00 36 102.0
20260503190702 77 148 2.0 5.0 0.00 0.00 0.00 35 102.0
20260503185702 76 195 4.0 8.0 0.00 0.00 0.00 31 101.9
20260503185202 77 208 7.0 12.0 0.00 0.00 0.00 35 101.9
20260503184703 76 202 6.0 7.0 0.00 0.00 0.00 35 101.9
20260503184202 76 203 2.0 7.0 0.00 0.00 0.00 35 101.9
20260503183202 77 236 2.0 6.0 0.00 0.00 0.00 33 102.0
20260503182702 77 165 1.0 8.0 0.00 0.00 0.00 32 102.2
20260503182203 76 171 2.0 6.0 0.00 0.00 0.00 36 102.2
20260503181702 76 149 1.0 5.0 0.00 0.00 0.00 36 102.2
20260503181202 77 205 3.0 11.0 0.00 0.00 0.00 34 102.2
20260503175702 75 186 2.0 5.0 0.00 0.00 0.00 36 102.2
20260503175202 75 200 3.0 6.0 0.00 0.00 0.00 37 102.2
20260503174702 75 246 2.0 11.0 0.00 0.00 0.00 36 102.2
20260503174202 75 189 5.0 9.0 0.00 0.00 0.00 35 102.2
20260503173702 75 171 2.0 9.0 0.00 0.00 0.00 35 102.2
20260503173202 75 56 1.0 6.0 0.00 0.00 0.00 37 102.2
20260503172702 75 149 2.0 7.0 0.00 0.00 0.00 36 102.2
20260503172202 76 188 11.0 11.0 0.00 0.00 0.00 35 102.2
20260503171702 75 47 0.0 6.0 0.00 0.00 0.00 38 102.3
20260503171203 76 229 3.0 9.0 0.00 0.00 0.00 34 102.3
20260503170702 75 241 1.0 4.0 0.00 0.00 0.00 39 102.3
20260503170202 74 216 1.0 4.0 0.00 0.00 0.00 36 102.2
20260503160202 72 255 2.0 5.0 0.00 0.00 0.00 45 102.2
20260503150202 68 237 2.0 4.0 0.00 0.00 0.00 52 102.2
20260503140202 62 236 0.0 3.0 0.00 0.00 0.00 66 102.2
20260503131203 57 239 2.0 3.0 0.00 0.00 0.00 76 102.2
20260503130702 57 207 3.0 4.0 0.00 0.00 0.00 76 102.2
20260503120204 53 303 3.0 5.0 0.00 0.00 0.00 83 102.0
20260503110701 53 105 2.0 3.0 0.00 0.00 0.00 83 102.0
20260503110202 54 95 1.0 4.0 0.00 0.00 0.00 82 102.0
20260503100202 53 32 0.0 2.0 0.00 0.00 0.00 84 102.0
20260503090202 54 4 1.0 1.0 0.00 0.00 0.00 86 102.0
20260503081202 53 141 0.0 1.0 0.00 0.00 0.00 86 102.0
20260503080702 54 44 0.0 1.0 0.00 0.00 0.00 86 102.0
20260503080202 54 48 1.0 1.0 0.00 0.00 0.00 86 102.0
20260503072702 54 77 1.0 1.0 0.00 0.00 0.00 85 102.0
20260503072203 54 65 1.0 1.0 0.00 0.00 0.00 85 102.0
20260503071702 54 94 0.0 1.0 0.00 0.00 0.00 84 102.0
20260503071202 54 81 1.0 2.0 0.00 0.00 0.00 84 102.0
20260503070702 54 58 1.0 2.0 0.00 0.00 0.00 85 102.0
20260503060202 55 73 0.0 1.0 0.00 0.00 0.00 83 102.2
20260503054202 55 51 0.0 1.0 0.00 0.00 0.00 82 102.2
20260503053702 55 47 0.0 1.0 0.00 0.00 0.00 81 102.2
20260503053202 55 55 0.0 1.0 0.00 0.00 0.00 81 102.0
20260503052702 55 39 0.0 1.0 0.00 0.00 0.00 81 102.0
20260503052202 55 61 0.0 1.0 0.00 0.00 0.00 81 102.2
20260503051702 55 62 0.0 1.0 0.00 0.00 0.00 81 102.2
20260503051202 55 48 1.0 1.0 0.00 0.00 0.00 82 102.2
20260503050703 55 62 0.0 1.0 0.00 0.00 0.00 82 102.2
20260503050202 56 44 0.0 1.0 0.00 0.00 0.00 82 102.2
20260503045702 56 67 1.0 1.0 0.00 0.00 0.00 81 102.2
20260503045201 56 62 0.0 1.0 0.00 0.00 0.00 81 102.2
20260503044702 56 48 0.0 1.0 0.00 0.00 0.00 82 102.2
20260503043702 56 50 0.0 1.0 0.00 0.00 0.00 82 102.2
20260503043203 56 37 0.0 0.0 0.00 0.00 0.00 82 102.0
20260503042703 56 50 0.0 0.0 0.00 0.00 0.00 82 102.0
20260503042203 56 44 0.0 0.0 0.00 0.00 0.00 81 102.0
20260503041702 56 62 0.0 1.0 0.00 0.00 0.00 80 102.0
20260503040202 57 66 0.0 1.0 0.00 0.00 0.00 79 102.0
20260503035202 58 64 1.0 1.0 0.00 0.00 0.00 77 102.0
20260503034702 58 55 0.0 0.0 0.00 0.00 0.00 76 102.0
20260503034202 58 25 0.0 0.0 0.00 0.00 0.00 76 102.0
20260503033702 58 15 0.0 1.0 0.00 0.00 0.00 77 102.0
20260503033201 58 14 0.0 1.0 0.00 0.00 0.00 77 102.0
20260503032702 58 69 0.0 1.0 0.00 0.00 0.00 77 102.0
20260503032203 58 37 0.0 1.0 0.00 0.00 0.00 76 102.0
20260503031702 58 44 0.0 0.0 0.00 0.00 0.00 76 102.0
20260503031202 58 129 0.0 0.0 0.00 0.00 0.00 75 102.0
20260503030702 59 89 0.0 0.0 0.00 0.00 0.00 75 102.0
20260503030202 59 39 0.0 0.0 0.00 0.00 0.00 75 102.0
20260503025702 59 37 0.0 0.0 0.00 0.00 0.00 74 102.0
20260503025202 59 129 0.0 0.0 0.00 0.00 0.00 73 102.0
20260503024702 60 142 0.0 0.0 0.00 0.00 0.00 73 102.0
20260503024202 60 44 0.0 0.0 0.00 0.00 0.00 73 102.0
20260503023702 60 44 0.0 0.0 0.00 0.00 0.00 72 102.0
20260503023203 61 124 0.0 0.0 0.00 0.00 0.00 71 101.9
20260503022702 61 129 0.0 0.0 0.00 0.00 0.00 71 101.9
20260503022202 61 224 0.0 0.0 0.00 0.00 0.00 71 101.9
20260503021702 61 224 0.0 0.0 0.00 0.00 0.00 70 101.9
20260503021202 61 242 0.0 0.0 0.00 0.00 0.00 68 101.9
20260503020702 62 133 0.0 0.0 0.00 0.00 0.00 63 101.9
20260503020202 62 117 0.0 0.0 0.00 0.00 0.00 66 101.9
20260503015202 63 135 0.0 0.0 0.00 0.00 0.00 65 101.9
20260503013702 65 129 0.0 0.0 0.00 0.00 0.00 60 101.9
20260503012702 66 135 0.0 0.0 0.00 0.00 0.00 53 101.9
20260503011702 68 129 0.0 0.0 0.00 0.00 0.00 51 101.9
20260503011202 68 124 0.0 0.0 0.00 0.00 0.00 50 101.9
20260503010702 69 103 0.0 0.0 0.00 0.00 0.00 49 101.9
20260503010202 70 119 0.0 1.0 0.00 0.00 0.00 47 101.9
20260503005702 71 76 0.0 1.0 0.00 0.00 0.00 46 101.9
20260503005203 71 143 0.0 1.0 0.00 0.00 0.00 46 101.9
20260503004702 70 224 0.0 1.0 0.00 0.00 0.00 45 101.9
20260503004202 71 135 0.0 1.0 0.00 0.00 0.00 45 101.9
20260503003703 71 91 1.0 1.0 0.00 0.00 0.00 43 101.9
20260503003202 72 135 0.0 0.0 0.00 0.00 0.00 43 101.8
20260503002702 71 315 0.0 1.0 0.00 0.00 0.00 44 101.9
20260503002202 72 128 0.0 1.0 0.00 0.00 0.00 41 101.9
20260503001702 72 125 0.0 1.0 0.00 0.00 0.00 41 101.9
20260503001202 72 120 0.0 1.0 0.00 0.00 0.00 41 101.9
20260503000702 72 128 1.0 2.0 0.00 0.00 0.00 40 101.9
20260503000204 72 99 2.0 2.0 0.00 0.00 0.00 39 101.8
20260502235702 73 29 0.0 2.0 0.00 0.00 0.00 39 101.8
20260502235202 73 242 0.0 3.0 0.00 0.00 0.00 38 101.8
20260502234703 73 255 0.0 2.0 0.00 0.00 0.00 38 101.8
20260502234203 73 76 1.0 2.0 0.00 0.00 0.00 38 101.8
20260502233702 73 152 0.0 4.0 0.00 0.00 0.00 38 101.8
20260502233202 73 146 0.0 2.0 0.00 0.00 0.00 39 101.8
20260502232701 72 131 1.0 1.0 0.00 0.00 0.00 39 101.8
20260502232202 73 343 0.0 3.0 0.00 0.00 0.00 38 101.8
20260502231703 73 53 1.0 5.0 0.00 0.00 0.00 39 101.8
20260502230202 72 48 2.0 2.0 0.00 0.00 0.00 38 101.8
20260502225204 72 94 1.0 2.0 0.00 0.00 0.00 39 101.8
20260502224702 73 25 2.0 3.0 0.00 0.00 0.00 39 101.8
20260502224204 72 294 0.0 3.0 0.00 0.00 0.00 38 101.8
20260502223702 72 38 1.0 3.0 0.00 0.00 0.00 38 101.8
20260502223202 72 28 1.0 2.0 0.00 0.00 0.00 39 101.8
20260502222702 72 88 1.0 5.0 0.00 0.00 0.00 38 101.8
20260502222202 73 74 2.0 4.0 0.00 0.00 0.00 39 101.8
20260502221702 73 0 1.0 4.0 0.00 0.00 0.00 38 101.9